Regional Weather Roundup
Issued by NWS Cleveland, OH

Home | Current Version | Previous Version | Graphics & Text | Print | Product List | Glossary On
Versions: 1 2 3 4 5 6 7 8 9 10 11 12 13 14 15 16 17 18 19 20 21 22 23 24 25 26 27 28 29 30 31 32 33 34 35 36 37 38 39 40 41 42 43 44 45 46 47 48 49 50
000
ASUS41 KCLE 262200
RWRCLE
OHIO REGIONAL WEATHER ROUNDUP
NATIONAL WEATHER SERVICE WILMINGTON, OH
500 PM EST THU FEB 26 2015

NOTE: "FAIR" INDICATES FEW OR NO CLOUDS BELOW 12,000 FEET WITH NO
SIGNIFICANT WEATHER AND/OR OBSTRUCTIONS TO VISIBILITY.

OHZ001>008-015>018-024>027-034-035-043-044-262300-
   NORTHWEST OHIO

CITY           SKY/WX    TMP DP  RH WIND       PRES   REMARKS
DEFIANCE       LGT SNOW  16   7  67 N7        30.20R WCI   6
FINDLAY        CLOUDY    14   3  61 NE8       30.17R WCI   3
TOLEDO EXPRESS CLOUDY    15   3  59 N12       30.19R WCI   2
TOLEDO EXEC    CLOUDY    15   6  67 E5        30.20R WCI   8
LIMA           CLOUDY    14   4  64 N12       30.16R WCI   0
$$

OHZ009>014-019>023-028>033-038-089-262300-
   NORTHEAST OHIO

CITY           SKY/WX    TMP DP  RH WIND       PRES   REMARKS
CLE-HOPKINS    LGT SNOW  12   4  70 N16       30.17S BLWGSNOWWCI  -5
CLE-LAKEFRONT  CLOUDY    13   5  70 N13       30.16R WCI  -2
CUY CO. ARPT   CLOUDY    12   7  79 N12G21    30.14R WCI  -2
LORAIN-ELYRIA  CLOUDY    11   3  70 NE16      30.16R HAZE    WCI  -6
ASHTABULA      LGT SNOW  11   4  73 N7        30.11R WCI   0
AKRON-CANTON   CLOUDY    15   5  64 N9        30.06R WCI   3
WOOSTER        NOT AVBL
MANSFIELD      CLOUDY    11   3  70 N15       30.09R WCI  -5
YOUNGSTOWN     PTSUNNY   12   4  70 N17       30.06R WCI  -5
$$

OHZ042-051>053-060>062-070>072-077>081-262300-
  SOUTHWEST OHIO

CITY           SKY/WX    TMP DP  RH WIND       PRES   REMARKS
CINC-COVINGTON LGT SNOW  21  12  68 N12       30.13R WCI   9
CINC-LUNKEN    FLURRIES  21  12  68 N15       30.18R WCI   8
HAMILTON       CLOUDY    19   9  65 N13       30.18R WCI   6
DAYTON         NOT AVBL
WRIGHT-PAT AFB NOT AVBL
DAYTON GENERAL CLOUDY    18   8  65 N12       30.14R WCI   5
WILMINGTON     CLOUDY    17   8  67 N9        30.11R WCI   6
$$

OHZ036-037-039>041-045>050-054>059-063>069-073>076-082>088-262300-
  CENTRAL AND SOUTHEAST OHIO

CITY           SKY/WX    TMP DP  RH WIND       PRES   REMARKS
COLUMBUS       MOSUNNY   18   6  59 NW14      30.10R WCI   4
OSU AIRPORT    PTSUNNY   15   5  64 N14       30.11R WCI   0
BOLTON FIELD   MOSUNNY   16   7  67 N14       30.12R WCI   1
RICKENBACK AFB SUNNY     19   8  63 N13       30.11R WCI   5
NEWARK         MOSUNNY   21   7  54 N7        30.08R WCI  12
MARION         CLOUDY    12   4  70 N16       30.13R WCI  -5
LANCASTER      MOSUNNY   20  10  65 N9        30.09R WCI   9
ZANESVILLE     CLOUDY    20   9  62 N9        30.07R WCI   9
NEW PHILLY     CLOUDY    19   8  62 NW12      30.08R WCI   7
$$



USA.gov is the U.S. government's official web portal to all federal, state and local government web resources and services.